,,,PA_Meas_PMT16A,,PR_Meas_QMR101_102,,RH_Meas_QMH101,,SR_Meas_QMS101,,TA_Meas_QMH101,,GenWind,,GenWind,
date,time,status,PA,status,PR,status,RH,status,SR,status,TA,status,DirAvg,status,SpdAvg,
2009-05-19, 00:00:04,VALID,1003.73,VALID,0,VALID,94.6134,VALID,0,VALID,24.4628,VALID,358,VALID,0.432031,
2009-05-19, 00:01:04,VALID,1003.7,VALID,0,VALID,94.6515,VALID,0,VALID,24.5035,VALID,358,VALID,0.646484,
2009-05-19, 00:02:04,VALID,1003.65,VALID,0,VALID,94.6286,VALID,0,VALID,24.4609,VALID,358,VALID,0.694922,
2009-05-19, 00:03:04,VALID,1003.63,VALID,0,VALID,94.7202,VALID,0,VALID,24.523,VALID,356,VALID,0.721875,
2009-05-19, 00:04:04,VALID,1003.57,VALID,0,VALID,94.7431,VALID,0,VALID,24.5601,VALID,355,VALID,0.677344,
2009-05-19, 00:05:04,VALID,1003.51,VALID,0,VALID,94.7736,VALID,0,VALID,24.599,VALID,355,VALID,0.573828,
2009-05-19, 00:06:04,VALID,1003.48,VALID,0,VALID,94.7431,VALID,0,VALID,24.5406,VALID,355,VALID,0.5375,
2009-05-19, 00:07:04,VALID,1003.47,VALID,0,VALID,94.6439,VALID,0,VALID,24.5406,VALID,355,VALID,0.405859,
2009-05-19, 00:08:04,VALID,1003.41,VALID,0,VALID,94.6134,VALID,0,VALID,24.5212,VALID,355,VALID,0.4125,
2009-05-19, 00:09:04,VALID,1003.39,VALID,0,VALID,94.5829,VALID,0,VALID,24.4822,VALID,355,VALID,0.511719,
2009-05-19, 00:10:04,VALID,1003.33,VALID,0,VALID,94.6286,VALID,0,VALID,24.5017,VALID,355,VALID,0.582812,
2009-05-19, 00:11:04,VALID,1003.32,VALID,0,VALID,94.6744,VALID,0,VALID,24.5017,VALID,355,VALID,0.456641,
2009-05-19, 00:12:04,VALID,1003.32,VALID,0,VALID,94.6897,VALID,0,VALID,24.5017,VALID,355,VALID,0.262109,
2009-05-19, 00:13:04,VALID,1003.28,VALID,0,VALID,94.7049,VALID,0,VALID,24.5212,VALID,355,VALID,0.405859,
2009-05-19, 00:14:04,VALID,1003.29,VALID,0,VALID,94.7354,VALID,0,VALID,24.5601,VALID,355,VALID,0.538672,
2009-05-19, 00:15:04,VALID,1003.27,VALID,0,VALID,94.7278,VALID,0,VALID,24.5601,VALID,356,VALID,0.435937,
2009-05-19, 00:16:04,VALID,1003.24,VALID,0,VALID,94.7202,VALID,0,VALID,24.5406,VALID,356,VALID,0.433984,
2009-05-19, 00:17:04,VALID,1003.2,VALID,0,VALID,94.6973,VALID,0,VALID,24.5601,VALID,356,VALID,0.408594,
2009-05-19, 00:18:04,VALID,1003.18,VALID,0,VALID,94.7431,VALID,0,VALID,24.5601,VALID,356,VALID,0.262109,
2009-05-19, 00:19:04,VALID,1003.18,VALID,0,VALID,94.7354,VALID,0,VALID,24.5796,VALID,356,VALID,0.391797,
2009-05-19, 00:20:04,VALID,1003.17,VALID,0,VALID,94.7354,VALID,0,VALID,24.5796,VALID,356,VALID,0.291016,
2009-05-19, 00:21:04,VALID,1003.15,VALID,0,VALID,94.7049,VALID,0,VALID,24.5601,VALID,356,VALID,0.292969,
2009-05-19, 00:22:04,VALID,1003.15,VALID,0,VALID,94.6515,VALID,0,VALID,24.5406,VALID,356,VALID,0.31875,
2009-05-19, 00:23:04,VALID,1003.14,VALID,0,VALID,94.6057,VALID,0,VALID,24.5212,VALID,356,VALID,0.325,
2009-05-19, 00:24:04,VALID,1003.15,VALID,0,VALID,94.6057,VALID,0,VALID,24.5017,VALID,356,VALID,0.296094,
2009-05-19, 00:25:04,VALID,1003.14,VALID,0,VALID,94.6515,VALID,0,VALID,24.5212,VALID,356,VALID,0.141016,
2009-05-19, 00:26:04,VALID,1003.11,VALID,0,VALID,94.6591,VALID,0,VALID,24.5212,VALID,356,VALID,0,
2009-05-19, 00:27:04,VALID,1003.1,VALID,0,VALID,94.7354,VALID,0,VALID,24.5388,VALID,356,VALID,0.0355469,
2009-05-19, 00:28:04,VALID,1003.06,VALID,0,VALID,94.7431,VALID,0,VALID,24.5777,VALID,347,VALID,0.398438,
2009-05-19, 00:29:04,VALID,1003.06,VALID,0,VALID,94.7507,VALID,0,VALID,24.6185,VALID,347,VALID,0,
2009-05-19, 00:30:04,VALID,1003.08,VALID,0,VALID,94.7354,VALID,0.100563,VALID,24.5972,VALID,347,VALID,0.0816406,
2009-05-19, 00:31:04,VALID,1003.09,VALID,0,VALID,94.6515,VALID,0.100563,VALID,24.5972,VALID,347,VALID,0,
2009-05-19, 00:32:04,VALID,1003.13,VALID,0,VALID,94.6363,VALID,0.100563,VALID,24.6166,VALID,347,VALID,0,
2009-05-19, 00:33:04,VALID,1003.17,VALID,0,VALID,94.621,VALID,0,VALID,24.6166,VALID,347,VALID,0,
2009-05-19, 00:34:04,VALID,1003.15,VALID,0,VALID,94.5523,VALID,0,VALID,24.5777,VALID,347,VALID,0,
2009-05-19, 00:35:04,VALID,1003.16,VALID,0,VALID,94.4608,VALID,0.100563,VALID,24.5174,VALID,348,VALID,0.557422,
2009-05-19, 00:36:04,VALID,1003.2,VALID,0,VALID,94.354,VALID,0,VALID,24.4804,VALID,348,VALID,0.563281,
2009-05-19, 00:37:04,VALID,1003.2,VALID,0,VALID,94.3921,VALID,0.100563,VALID,24.4822,VALID,348,VALID,0.427344,
2009-05-19, 00:38:04,VALID,1003.2,VALID,0,VALID,94.4074,VALID,0.100563,VALID,24.4609,VALID,348,VALID,0.289453,
2009-05-19, 00:39:04,VALID,1003.19,VALID,0,VALID,94.4761,VALID,0,VALID,24.4414,VALID,348,VALID,0.209375,
2009-05-19, 00:40:04,VALID,1003.19,VALID,0,VALID,94.4684,VALID,0.100563,VALID,24.4609,VALID,348,VALID,0.147656,
2009-05-19, 00:41:04,VALID,1003.21,VALID,0,VALID,94.5218,VALID,0.100563,VALID,24.4609,VALID,348,VALID,0.283594,
2009-05-19, 00:42:04,VALID,1003.25,VALID,0,VALID,94.5752,VALID,0,VALID,24.4609,VALID,348,VALID,0.399219,
2009-05-19, 00:43:04,VALID,1003.27,VALID,0,VALID,94.5447,VALID,0,VALID,24.4822,VALID,348,VALID,0.379297,
2009-05-19, 00:44:04,VALID,1003.32,VALID,0,VALID,94.5218,VALID,0,VALID,24.4822,VALID,348,VALID,0.389453,
2009-05-19, 00:45:04,VALID,1003.33,VALID,0,VALID,94.5218,VALID,0,VALID,24.4628,VALID,348,VALID,0.312109,
2009-05-19, 00:46:04,VALID,1003.34,VALID,0,VALID,94.5829,VALID,0,VALID,24.5035,VALID,348,VALID,0.331641,
2009-05-19, 00:47:04,VALID,1003.33,VALID,0,VALID,94.6286,VALID,0,VALID,24.5017,VALID,348,VALID,0.146875,
2009-05-19, 00:48:04,VALID,1003.37,VALID,0,VALID,94.6134,VALID,0,VALID,24.5212,VALID,348,VALID,0,
2009-05-19, 00:49:04,VALID,1003.33,VALID,0,VALID,94.5905,VALID,0,VALID,24.5212,VALID,348,VALID,0,
2009-05-19, 00:50:04,VALID,1003.36,VALID,0,VALID,94.5829,VALID,0,VALID,24.5406,VALID,348,VALID,0,
2009-05-19, 00:51:04,VALID,1003.34,VALID,0,VALID,94.6439,VALID,0,VALID,24.5406,VALID,348,VALID,0.131641,
2009-05-19, 00:52:04,VALID,1003.31,VALID,0,VALID,94.6744,VALID,0,VALID,24.5601,VALID,348,VALID,0,
2009-05-19, 00:53:04,VALID,1003.3,VALID,0,VALID,94.621,VALID,0,VALID,24.6009,VALID,348,VALID,0,
2009-05-19, 00:54:04,VALID,1003.25,VALID,0,VALID,94.5676,VALID,0,VALID,24.5601,VALID,348,VALID,0.00234375,
2009-05-19, 00:55:04,VALID,1003.21,VALID,0,VALID,94.5829,VALID,0,VALID,24.5582,VALID,348,VALID,0.00585938,
2009-05-19, 00:56:04,VALID,1003.19,VALID,0,VALID,94.5905,VALID,0,VALID,24.5796,VALID,348,VALID,0,
2009-05-19, 00:57:04,VALID,1003.15,VALID,0,VALID,94.6439,VALID,0,VALID,24.6185,VALID,348,VALID,0,
2009-05-19, 00:58:04,VALID,1003.11,VALID,0,VALID,94.6668,VALID,0,VALID,24.6361,VALID,348,VALID,0.0503906,
2009-05-19, 00:59:04,VALID,1003.06,VALID,0,VALID,94.6591,VALID,0,VALID,24.675,VALID,348,VALID,0,
2009-05-19, 01:00:04,VALID,1002.98,VALID,0,VALID,94.6134,VALID,0,VALID,24.6732,VALID,348,VALID,0,
2009-05-19, 01:01:04,VALID,1003,VALID,0,VALID,94.5905,VALID,0,VALID,24.714,VALID,348,VALID,0.278516,
2009-05-19, 01:02:04,VALID,1002.99,VALID,0,VALID,94.4379,VALID,0.100563,VALID,24.675,VALID,9,VALID,0.755469,
2009-05-19, 01:03:04,VALID,1003,VALID,0,VALID,94.3235,VALID,0,VALID,24.6361,VALID,9,VALID,0.460547,
2009-05-19, 01:04:04,VALID,1003,VALID,0,VALID,94.293,VALID,0.100563,VALID,24.5777,VALID,11,VALID,0.469922,
2009-05-19, 01:05:04,VALID,1003.01,VALID,0,VALID,94.2853,VALID,0.100563,VALID,24.5601,VALID,14,VALID,0.379687,
2009-05-19, 01:06:04,VALID,1002.96,VALID,0,VALID,94.3082,VALID,0.100563,VALID,24.5193,VALID,22,VALID,0.425391,
2009-05-19, 01:07:04,VALID,1002.95,VALID,0,VALID,94.3158,VALID,0.100563,VALID,24.5193,VALID,22,VALID,0.473828,
2009-05-19, 01:08:04,VALID,1002.93,VALID,0,VALID,94.4379,VALID,0.100563,VALID,24.498,VALID,22,VALID,0.263672,
2009-05-19, 01:09:04,VALID,1002.87,VALID,0,VALID,94.5447,VALID,0.100563,VALID,24.5582,VALID,22,VALID,0.220313,
2009-05-19, 01:10:04,VALID,1002.9,VALID,0,VALID,94.5447,VALID,0.100563,VALID,24.5777,VALID,22,VALID,0.196484,
2009-05-19, 01:11:04,VALID,1002.88,VALID,0,VALID,94.5447,VALID,0.100563,VALID,24.5564,VALID,21,VALID,0.117969,
2009-05-19, 01:12:04,VALID,1002.86,VALID,0,VALID,94.5295,VALID,0,VALID,24.599,VALID,21,VALID,0.0765625,
2009-05-19, 01:13:04,VALID,1002.87,VALID,0,VALID,94.5066,VALID,0,VALID,24.599,VALID,21,VALID,0,
2009-05-19, 01:14:04,VALID,1002.86,VALID,0,VALID,94.4761,VALID,0,VALID,24.599,VALID,22,VALID,0,
2009-05-19, 01:15:04,VALID,1002.89,VALID,0,VALID,94.4455,VALID,0,VALID,24.5796,VALID,22,VALID,0,
2009-05-19, 01:16:04,VALID,1002.91,VALID,0,VALID,94.4379,VALID,0,VALID,24.5796,VALID,22,VALID,0,
2009-05-19, 01:17:04,VALID,1002.91,VALID,0,VALID,94.4227,VALID,0,VALID,24.5601,VALID,21,VALID,0,
2009-05-19, 01:18:04,VALID,1002.92,VALID,0,VALID,94.4379,VALID,0,VALID,24.5601,VALID,22,VALID,0,
2009-05-19, 01:19:04,VALID,1002.92,VALID,0,VALID,94.4379,VALID,0,VALID,24.5814,VALID,22,VALID,0,
2009-05-19, 01:20:04,VALID,1002.96,VALID,0,VALID,94.4684,VALID,0,VALID,24.5601,VALID,21,VALID,0,
2009-05-19, 01:21:04,VALID,1002.98,VALID,0,VALID,94.4379,VALID,0,VALID,24.5601,VALID,22,VALID,0.0257812,
2009-05-19, 01:22:04,VALID,1003,VALID,0,VALID,94.415,VALID,0,VALID,24.5406,VALID,22,VALID,0,
2009-05-19, 01:23:04,VALID,1003.02,VALID,0,VALID,94.4455,VALID,0,VALID,24.5601,VALID,21,VALID,0,
2009-05-19, 01:24:04,VALID,1003,VALID,0,VALID,94.5142,VALID,0,VALID,24.5601,VALID,22,VALID,0.0472656,
2009-05-19, 01:25:04,VALID,1003.01,VALID,0,VALID,94.5218,VALID,0,VALID,24.5796,VALID,22,VALID,0.124609,
2009-05-19, 01:26:04,VALID,1003.02,VALID,0,VALID,94.5218,VALID,0,VALID,24.5796,VALID,22,VALID,0,
2009-05-19, 01:27:04,VALID,1003,VALID,0,VALID,94.5371,VALID,0.100563,VALID,24.5972,VALID,22,VALID,0,
2009-05-19, 01:28:04,VALID,1003.01,VALID,0,VALID,94.4989,VALID,0.201126,VALID,24.6166,VALID,22,VALID,0,
2009-05-19, 01:29:04,VALID,1002.99,VALID,0,VALID,94.5295,VALID,0.100563,VALID,24.5953,VALID,22,VALID,0,
2009-05-19, 01:30:04,VALID,1003.01,VALID,0,VALID,94.4761,VALID,0.100563,VALID,24.5758,VALID,22,VALID,0.0902344,
2009-05-19, 01:31:04,VALID,1003,VALID,0,VALID,94.415,VALID,0.100563,VALID,24.5582,VALID,21,VALID,0.573047,
2009-05-19, 01:32:04,VALID,1002.99,VALID,0,VALID,94.415,VALID,0,VALID,24.5582,VALID,21,VALID,0.492188,
2009-05-19, 01:33:04,VALID,1002.97,VALID,0,VALID,94.4074,VALID,0.100563,VALID,24.5388,VALID,14,VALID,0.718359,
2009-05-19, 01:34:04,VALID,1002.99,VALID,0,VALID,94.4989,VALID,0,VALID,24.5582,VALID,13,VALID,0.495313,
2009-05-19, 01:35:04,VALID,1002.96,VALID,0,VALID,94.56,VALID,0,VALID,24.5582,VALID,13,VALID,0.630469,
2009-05-19, 01:36:04,VALID,1002.94,VALID,0,VALID,94.5905,VALID,0,VALID,24.5777,VALID,13,VALID,0.479688,
2009-05-19, 01:37:04,VALID,1002.92,VALID,0,VALID,94.6363,VALID,0.100563,VALID,24.5972,VALID,13,VALID,0.503906,
2009-05-19, 01:38:04,VALID,1002.92,VALID,0,VALID,94.6744,VALID,0,VALID,24.6361,VALID,13,VALID,0.598828,
2009-05-19, 01:39:04,VALID,1002.9,VALID,0,VALID,94.682,VALID,0,VALID,24.6769,VALID,13,VALID,0.576563,
2009-05-19, 01:40:04,VALID,1002.88,VALID,0,VALID,94.6897,VALID,0.100563,VALID,24.675,VALID,13,VALID,0.523047,
2009-05-19, 01:41:04,VALID,1002.86,VALID,0.5,VALID,94.6973,VALID,0.100563,VALID,24.6945,VALID,13,VALID,0.543359,
2009-05-19, 01:42:04,VALID,1002.84,VALID,0,VALID,94.6973,VALID,0.100563,VALID,24.7335,VALID,13,VALID,0.452734,
2009-05-19, 01:43:04,VALID,1002.87,VALID,0,VALID,94.7049,VALID,0.100563,VALID,24.714,VALID,13,VALID,0.541797,
2009-05-19, 01:44:04,VALID,1002.87,VALID,0,VALID,94.6973,VALID,0,VALID,24.714,VALID,13,VALID,0.497656,
2009-05-19, 01:45:04,VALID,1002.9,VALID,0,VALID,94.7049,VALID,0.100563,VALID,24.7335,VALID,12,VALID,0.382031,
2009-05-19, 01:46:04,VALID,1002.96,VALID,0,VALID,94.7202,VALID,0,VALID,24.7529,VALID,12,VALID,0.448828,
2009-05-19, 01:47:04,VALID,1003,VALID,0,VALID,94.7278,VALID,0.100563,VALID,24.7724,VALID,12,VALID,0.255078,
2009-05-19, 01:48:04,VALID,1003.07,VALID,0,VALID,94.7431,VALID,0.100563,VALID,24.7724,VALID,12,VALID,0.215234,
2009-05-19, 01:49:04,VALID,1003.09,VALID,0.5,VALID,94.7583,VALID,0.100563,VALID,24.7705,VALID,12,VALID,0.0449219,
2009-05-19, 01:50:04,VALID,1003.15,VALID,0,VALID,94.7736,VALID,0,VALID,24.7919,VALID,12,VALID,0,
2009-05-19, 01:51:04,VALID,1003.15,VALID,0,VALID,94.7507,VALID,0,VALID,24.7919,VALID,12,VALID,0,
2009-05-19, 01:52:04,VALID,1003.18,VALID,0,VALID,94.766,VALID,0,VALID,24.8113,VALID,12,VALID,0.290234,
2009-05-19, 01:53:04,VALID,1003.19,VALID,0,VALID,94.7736,VALID,0,VALID,24.8327,VALID,12,VALID,0.0277344,
2009-05-19, 01:54:04,VALID,1003.16,VALID,0,VALID,94.766,VALID,0,VALID,24.8503,VALID,12,VALID,0,
2009-05-19, 01:55:04,VALID,1003.16,VALID,0,VALID,94.7965,VALID,0.100563,VALID,24.8697,VALID,12,VALID,0,
2009-05-19, 01:56:04,VALID,1003.13,VALID,0,VALID,94.8117,VALID,0,VALID,24.8892,VALID,12,VALID,0,
2009-05-19, 01:57:04,VALID,1003.11,VALID,0,VALID,94.8346,VALID,0.100563,VALID,24.9087,VALID,12,VALID,0.0015625,
2009-05-19, 01:58:04,VALID,1003.03,VALID,0,VALID,94.8346,VALID,0.100563,VALID,24.8892,VALID,12,VALID,0.214062,
2009-05-19, 01:59:04,VALID,1003.02,VALID,0,VALID,94.8346,VALID,0.100563,VALID,24.9495,VALID,12,VALID,0,
2009-05-19, 02:00:04,VALID,1002.97,VALID,0,VALID,94.8422,VALID,0.100563,VALID,24.9087,VALID,12,VALID,0,
2009-05-19, 02:01:04,VALID,1002.95,VALID,0,VALID,94.8346,VALID,0.100563,VALID,24.9087,VALID,12,VALID,0,
2009-05-19, 02:02:04,VALID,1002.92,VALID,0,VALID,94.8499,VALID,0.100563,VALID,24.9282,VALID,12,VALID,0.348828,
2009-05-19, 02:03:04,VALID,1002.92,VALID,0,VALID,94.8575,VALID,0.100563,VALID,24.9885,VALID,12,VALID,0.589063,
2009-05-19, 02:04:04,VALID,1002.91,VALID,0,VALID,94.8651,VALID,0.100563,VALID,24.9671,VALID,10,VALID,0.61875,
2009-05-19, 02:05:04,VALID,1002.91,VALID,0,VALID,94.8422,VALID,0.100563,VALID,24.9476,VALID,6,VALID,0.757422,
2009-05-19, 02:06:04,VALID,1002.93,VALID,0,VALID,94.8346,VALID,0.100563,VALID,24.9282,VALID,6,VALID,0.389453,
2009-05-19, 02:07:04,VALID,1002.94,VALID,0,VALID,94.8422,VALID,0,VALID,24.93,VALID,6,VALID,0.456641,
2009-05-19, 02:08:04,VALID,1002.98,VALID,0,VALID,94.8346,VALID,0,VALID,24.9087,VALID,6,VALID,0.287891,
2009-05-19, 02:09:04,VALID,1003,VALID,0,VALID,94.8422,VALID,0,VALID,24.9282,VALID,21,VALID,0.783984,
2009-05-19, 02:10:04,VALID,1003.02,VALID,0,VALID,94.8728,VALID,0.100563,VALID,24.9087,VALID,31,VALID,1.54727,
2009-05-19, 02:11:04,VALID,1003.06,VALID,0,VALID,94.8575,VALID,0.100563,VALID,24.8873,VALID,15,VALID,1.49336,
2009-05-19, 02:12:04,VALID,1003.08,VALID,0,VALID,94.8422,VALID,0,VALID,24.9319,VALID,30,VALID,0.961328,
2009-05-19, 02:13:04,VALID,1003.04,VALID,0,VALID,94.8346,VALID,0,VALID,24.8716,VALID,15,VALID,0.771094,
2009-05-19, 02:14:04,VALID,1003.04,VALID,0,VALID,94.7965,VALID,0,VALID,24.8716,VALID,15,VALID,1.48867,
2009-05-19, 02:15:04,VALID,1003.04,VALID,0,VALID,94.7736,VALID,0,VALID,24.9106,VALID,5,VALID,1.49727,
2009-05-19, 02:16:04,VALID,1002.99,VALID,0,VALID,94.7431,VALID,0,VALID,24.9106,VALID,1,VALID,1.26445,
2009-05-19, 02:17:04,VALID,1002.94,VALID,0,VALID,94.7049,VALID,0,VALID,24.969,VALID,356,VALID,1.09258,
2009-05-19, 02:18:04,VALID,1002.92,VALID,0,VALID,94.5676,VALID,0,VALID,24.9709,VALID,356,VALID,0.961328,
2009-05-19, 02:19:04,VALID,1002.89,VALID,0,VALID,94.4455,VALID,0,VALID,24.9495,VALID,349,VALID,0.809375,
2009-05-19, 02:20:04,VALID,1002.83,VALID,0,VALID,94.3921,VALID,0,VALID,24.9709,VALID,34,VALID,0.239453,
2009-05-19, 02:21:04,VALID,1002.81,VALID,0,VALID,94.3921,VALID,0,VALID,25.0098,VALID,71,VALID,0.04375,
2009-05-19, 02:22:04,VALID,1002.8,VALID,0,VALID,94.2777,VALID,0,VALID,24.9495,VALID,9,VALID,0.712891,
2009-05-19, 02:23:04,VALID,1002.82,VALID,0,VALID,94.2548,VALID,0,VALID,24.969,VALID,9,VALID,0.543359,
2009-05-19, 02:24:04,VALID,1002.83,VALID,0,VALID,94.2396,VALID,0,VALID,24.969,VALID,9,VALID,0.303906,
2009-05-19, 02:25:04,VALID,1002.83,VALID,0,VALID,94.1556,VALID,0,VALID,24.9709,VALID,29,VALID,0.59375,
2009-05-19, 02:26:04,VALID,1002.84,VALID,0,VALID,94.1709,VALID,0,VALID,24.9495,VALID,29,VALID,0.230469,
2009-05-19, 02:27:04,VALID,1002.84,VALID,0,VALID,94.1556,VALID,0,VALID,24.9495,VALID,29,VALID,0.314844,
2009-05-19, 02:28:04,VALID,1002.86,VALID,0,VALID,94.1709,VALID,0,VALID,24.9495,VALID,29,VALID,0.258594,
2009-05-19, 02:29:04,VALID,1002.89,VALID,0,VALID,94.1862,VALID,0,VALID,24.9495,VALID,29,VALID,0.354297,
2009-05-19, 02:30:04,VALID,1002.9,VALID,0,VALID,94.1633,VALID,0,VALID,24.9495,VALID,18,VALID,0.820703,
2009-05-19, 02:31:04,VALID,1002.93,VALID,0,VALID,94.1633,VALID,0,VALID,24.9514,VALID,36,VALID,0.932031,
2009-05-19, 02:32:04,VALID,1002.91,VALID,0,VALID,94.1633,VALID,0,VALID,24.9709,VALID,37,VALID,0.473437,
2009-05-19, 02:33:04,VALID,1002.91,VALID,0,VALID,94.1404,VALID,0,VALID,24.9495,VALID,31,VALID,0.583984,
2009-05-19, 02:34:04,VALID,1002.87,VALID,0,VALID,94.1938,VALID,0,VALID,24.93,VALID,357,VALID,0.520312,
2009-05-19, 02:35:04,VALID,1002.83,VALID,0,VALID,94.1938,VALID,0,VALID,24.9904,VALID,33,VALID,1.16914,
2009-05-19, 02:36:04,VALID,1002.8,VALID,0,VALID,94.1633,VALID,0,VALID,24.9885,VALID,59,VALID,0.371094,
2009-05-19, 02:37:04,VALID,1002.78,VALID,0,VALID,94.0717,VALID,0,VALID,25.0098,VALID,32,VALID,0.575781,
2009-05-19, 02:38:04,VALID,1002.79,VALID,0,VALID,93.9954,VALID,0,VALID,25.0274,VALID,342,VALID,0.332812,
2009-05-19, 02:39:04,VALID,1002.78,VALID,0,VALID,93.8886,VALID,0,VALID,25.0682,VALID,304,VALID,0.573438,
2009-05-19, 02:40:04,VALID,1002.78,VALID,0,VALID,93.7437,VALID,0,VALID,25.0877,VALID,288,VALID,0.207031,
2009-05-19, 02:41:04,VALID,1002.78,VALID,0,VALID,93.6445,VALID,0,VALID,25.0858,VALID,323,VALID,0.36875,
2009-05-19, 02:42:04,VALID,1002.81,VALID,0,VALID,93.5377,VALID,0,VALID,25.1053,VALID,337,VALID,0.280469,
2009-05-19, 02:43:04,VALID,1002.86,VALID,0,VALID,93.4385,VALID,0.100563,VALID,25.0644,VALID,337,VALID,0.284375,
2009-05-19, 02:44:04,VALID,1002.87,VALID,0,VALID,93.4156,VALID,0,VALID,25.0663,VALID,350,VALID,0.337891,
2009-05-19, 02:45:04,VALID,1002.92,VALID,0,VALID,93.3699,VALID,0,VALID,25.006,VALID,350,VALID,0.335156,
2009-05-19, 02:46:04,VALID,1002.93,VALID,0,VALID,93.3928,VALID,0,VALID,25.006,VALID,350,VALID,0.181641,
2009-05-19, 02:47:04,VALID,1002.98,VALID,0,VALID,93.3928,VALID,0.100563,VALID,24.9885,VALID,350,VALID,0.265625,
2009-05-19, 02:48:04,VALID,1003.01,VALID,0,VALID,93.4233,VALID,0,VALID,24.969,VALID,350,VALID,0.285547,
2009-05-19, 02:49:04,VALID,1003.03,VALID,0,VALID,93.4919,VALID,0.100563,VALID,24.9282,VALID,350,VALID,0.304688,
2009-05-19, 02:50:04,VALID,1003.07,VALID,0,VALID,93.5301,VALID,0.100563,VALID,24.93,VALID,350,VALID,0.389453,
2009-05-19, 02:51:04,VALID,1003.09,VALID,0,VALID,93.5682,VALID,0,VALID,24.9106,VALID,350,VALID,0.389844,
2009-05-19, 02:52:04,VALID,1003.08,VALID,0,VALID,93.614,VALID,0,VALID,24.8697,VALID,350,VALID,0.526172,
2009-05-19, 02:53:04,VALID,1003.1,VALID,0,VALID,93.675,VALID,0.100563,VALID,24.8911,VALID,350,VALID,0.274219,
2009-05-19, 02:54:04,VALID,1003.09,VALID,0,VALID,93.6903,VALID,0,VALID,24.8697,VALID,351,VALID,0.470703,
2009-05-19, 02:55:04,VALID,1003.08,VALID,0,VALID,93.7513,VALID,0.100563,VALID,24.8716,VALID,351,VALID,0.351563,
2009-05-19, 02:56:04,VALID,1003.09,VALID,0,VALID,93.7666,VALID,0,VALID,24.8308,VALID,351,VALID,0.405078,
2009-05-19, 02:57:04,VALID,1003.12,VALID,0,VALID,93.8123,VALID,0,VALID,24.8522,VALID,322,VALID,0.645703,
2009-05-19, 02:58:04,VALID,1003.11,VALID,0,VALID,93.82,VALID,0,VALID,24.8327,VALID,348,VALID,0.614453,
2009-05-19, 02:59:04,VALID,1003.14,VALID,0,VALID,93.8581,VALID,0,VALID,24.8308,VALID,5,VALID,0.519922,
2009-05-19, 03:00:04,VALID,1003.13,VALID,0,VALID,93.8352,VALID,0,VALID,24.8716,VALID,17,VALID,0.750391,
2009-05-19, 03:01:04,VALID,1003.16,VALID,0,VALID,93.7971,VALID,0,VALID,24.8911,VALID,346,VALID,0.453516,
2009-05-19, 03:02:04,VALID,1003.17,VALID,0,VALID,93.7208,VALID,0,VALID,24.8697,VALID,321,VALID,0.628516,
2009-05-19, 03:03:04,VALID,1003.21,VALID,0,VALID,93.6903,VALID,0,VALID,24.8911,VALID,347,VALID,0.542188,
2009-05-19, 03:04:04,VALID,1003.18,VALID,0,VALID,93.5453,VALID,0,VALID,24.93,VALID,346,VALID,0.603906,
2009-05-19, 03:05:04,VALID,1003.17,VALID,0,VALID,93.4233,VALID,0,VALID,24.93,VALID,6,VALID,0.150781,
2009-05-19, 03:06:04,VALID,1003.17,VALID,0,VALID,93.3165,VALID,0,VALID,24.93,VALID,6,VALID,0,
2009-05-19, 03:07:04,VALID,1003.16,VALID,0,VALID,93.2249,VALID,0,VALID,24.9282,VALID,6,VALID,0.00976563,
2009-05-19, 03:08:04,VALID,1003.12,VALID,0,VALID,93.0952,VALID,0.100563,VALID,24.93,VALID,3,VALID,0.482031,
2009-05-19, 03:09:04,VALID,1003.11,VALID,0,VALID,93.0113,VALID,0,VALID,24.93,VALID,3,VALID,0.0476562,
2009-05-19, 03:10:04,VALID,1003.13,VALID,0,VALID,92.9274,VALID,0,VALID,24.93,VALID,3,VALID,0,
2009-05-19, 03:11:04,VALID,1003.05,VALID,0,VALID,92.8587,VALID,0,VALID,24.93,VALID,3,VALID,0.0785156,
2009-05-19, 03:12:04,VALID,1003.09,VALID,0,VALID,92.813,VALID,0.100563,VALID,24.8892,VALID,3,VALID,0,
2009-05-19, 03:13:04,VALID,1003.07,VALID,0,VALID,92.8206,VALID,0,VALID,24.8503,VALID,3,VALID,0,
2009-05-19, 03:14:04,VALID,1003.06,VALID,0,VALID,92.8282,VALID,0,VALID,24.8503,VALID,3,VALID,0,
2009-05-19, 03:15:04,VALID,1003.08,VALID,0,VALID,92.874,VALID,0,VALID,24.8716,VALID,3,VALID,0,
2009-05-19, 03:16:04,VALID,1003.08,VALID,0,VALID,92.8892,VALID,0.100563,VALID,24.8308,VALID,3,VALID,0,
2009-05-19, 03:17:04,VALID,1003.09,VALID,0,VALID,92.9579,VALID,0,VALID,24.8113,VALID,3,VALID,0,
2009-05-19, 03:18:04,VALID,1003.11,VALID,0,VALID,93.0113,VALID,0,VALID,24.8132,VALID,3,VALID,0,
2009-05-19, 03:19:04,VALID,1003.14,VALID,0,VALID,93.0495,VALID,0,VALID,24.7937,VALID,3,VALID,0.194141,
2009-05-19, 03:20:04,VALID,1003.16,VALID,0,VALID,93.1486,VALID,0,VALID,24.7937,VALID,3,VALID,0.312891,
2009-05-19, 03:21:04,VALID,1003.18,VALID,0,VALID,93.2631,VALID,0,VALID,24.7937,VALID,129,VALID,0.844922,
2009-05-19, 03:22:04,VALID,1003.19,VALID,0,VALID,93.4309,VALID,0.100563,VALID,24.7937,VALID,140,VALID,0.669531,
2009-05-19, 03:23:04,VALID,1003.12,VALID,0,VALID,93.4462,VALID,0.100563,VALID,24.7743,VALID,152,VALID,0.264844,
2009-05-19, 03:24:04,VALID,1003.15,VALID,0,VALID,93.4919,VALID,0.100563,VALID,24.7548,VALID,138,VALID,1.08867,
2009-05-19, 03:25:04,VALID,1003.14,VALID,0,VALID,93.5606,VALID,0,VALID,24.7353,VALID,100,VALID,0.451562,
2009-05-19, 03:26:04,VALID,1003.1,VALID,0,VALID,93.6064,VALID,0,VALID,24.7159,VALID,97,VALID,0.185937,
2009-05-19, 03:27:04,VALID,1003.09,VALID,0,VALID,93.675,VALID,0,VALID,24.7353,VALID,91,VALID,0.507813,
2009-05-19, 03:28:04,VALID,1003.03,VALID,0,VALID,93.7132,VALID,0,VALID,24.7548,VALID,123,VALID,0.626172,
2009-05-19, 03:29:04,VALID,1003.02,VALID,0,VALID,93.7208,VALID,0.100563,VALID,24.7529,VALID,75,VALID,0.840625,
2009-05-19, 03:30:04,VALID,1003.02,VALID,0,VALID,93.7055,VALID,0,VALID,24.7937,VALID,109,VALID,0.199609,
2009-05-19, 03:31:04,VALID,1002.98,VALID,0,VALID,93.5377,VALID,0,VALID,24.7548,VALID,109,VALID,0.238672,
2009-05-19, 03:32:04,VALID,1002.92,VALID,0,VALID,93.4919,VALID,0,VALID,24.714,VALID,49,VALID,0.521875,
2009-05-19, 03:33:04,VALID,1002.88,VALID,0,VALID,93.5301,VALID,0,VALID,24.6945,VALID,49,VALID,0.628125,
2009-05-19, 03:34:04,VALID,1002.86,VALID,0,VALID,93.614,VALID,0,VALID,24.6945,VALID,35,VALID,0.551562,
2009-05-19, 03:35:04,VALID,1002.79,VALID,0,VALID,93.6826,VALID,0,VALID,24.6945,VALID,71,VALID,0.488672,
2009-05-19, 03:36:04,VALID,1002.77,VALID,0,VALID,93.7055,VALID,0,VALID,24.6945,VALID,71,VALID,0.318359,
2009-05-19, 03:37:04,VALID,1002.71,VALID,0,VALID,93.6903,VALID,0,VALID,24.675,VALID,71,VALID,0.346484,
2009-05-19, 03:38:04,VALID,1002.67,VALID,0,VALID,93.7437,VALID,0,VALID,24.6964,VALID,71,VALID,0.287891,
2009-05-19, 03:39:04,VALID,1002.63,VALID,0,VALID,93.7589,VALID,0,VALID,24.6964,VALID,71,VALID,0.400781,
2009-05-19, 03:40:04,VALID,1002.59,VALID,0,VALID,93.8505,VALID,0.100563,VALID,24.7353,VALID,58,VALID,0.488281,
2009-05-19, 03:41:04,VALID,1002.55,VALID,0,VALID,93.9039,VALID,0,VALID,24.714,VALID,58,VALID,0.736328,
2009-05-19, 03:42:04,VALID,1002.51,VALID,0,VALID,93.9497,VALID,0,VALID,24.714,VALID,62,VALID,0.73125,
2009-05-19, 03:43:04,VALID,1002.51,VALID,0,VALID,93.9497,VALID,0,VALID,24.714,VALID,51,VALID,0.598047,
2009-05-19, 03:44:04,VALID,1002.41,VALID,0,VALID,93.9268,VALID,0,VALID,24.675,VALID,44,VALID,0.74375,
2009-05-19, 03:45:04,VALID,1002.4,VALID,0,VALID,93.9268,VALID,0,VALID,24.6556,VALID,40,VALID,0.508203,